When you browse on this site, cookies collect data to enhance your experience and personalize the content and advertising you see.
Visit our Privacy Policy to learn more. By continuing to use the site, you agree to this use of cookies and data.
  • în România
  • Lista ţărilor
  • Pe 7 zile
  • Temperatura apei
  • Hartă satelitară
  • Meteo pe hartă
  • Widget-uri
  • user-avatar
    Intrare

    Meteo pe oră la Arrigorriaga

    Astăzi, 25 Aprilie, Joi

    Timp Temperatura Precipitaţii Vânt Presiune Umiditate
    00:00 +10°C° 0 mm 3 m/s 729 mmHg 75%
    01:00 +10°C° 0 mm 4 m/s 730 mmHg 71%
    02:00 +10°C° 0 mm 4 m/s 730 mmHg 67%
    03:00 +8°C° 0 mm 4 m/s 731 mmHg 63%
    04:00 +8°C° 0 mm 5 m/s 731 mmHg 63%
    05:00 +8°C° 0 mm 5 m/s 731 mmHg 64%
    06:00 +8°C° 0 mm 5 m/s 732 mmHg 64%
    07:00 +9°C° 0 mm 6 m/s 732 mmHg 59%
    08:00 +11°C° 0 mm 6 m/s 732 mmHg 53%
    09:00 +13°C° 0 mm 6 m/s 733 mmHg 48%
    10:00 +14°C° 0 mm 6 m/s 733 mmHg 45%
    11:00 +15°C° 0 mm 6 m/s 733 mmHg 43%
    12:00 +16°C° 0 mm 6 m/s 733 mmHg 40%
    13:00 +16°C° 0.1 mm 6 m/s 734 mmHg 40%
    14:00 +16°C° 0.1 mm 5 m/s 734 mmHg 40%
    15:00 +16°C° 0.1 mm 5 m/s 734 mmHg 40%
    16:00 +15°C° 0.1 mm 5 m/s 734 mmHg 44%
    17:00 +14°C° 0.1 mm 5 m/s 734 mmHg 47%
    18:00 +13°C° 0.1 mm 4 m/s 735 mmHg 51%
    19:00 +12°C° 0 mm 4 m/s 735 mmHg 56%
    20:00 +11°C° 0 mm 4 m/s 736 mmHg 62%
    21:00 +10°C° 0 mm 4 m/s 737 mmHg 68%
    22:00 +9°C° 0 mm 3 m/s 738 mmHg 69%
    23:00 +8°C° 0 mm 3 m/s 738 mmHg 70%

    Mâine, 26 Aprilie, Vineri

    Timp Temperatura Precipitaţii Vânt Presiune Umiditate
    00:00 +7°C° 0 mm 3 m/s 739 mmHg 71%
    01:00 +8°C° 0.1 mm 3 m/s 740 mmHg 72%
    02:00 +8°C° 0.1 mm 3 m/s 740 mmHg 74%
    03:00 +9°C° 0.1 mm 3 m/s 741 mmHg 76%
    04:00 +8°C° 0.1 mm 3 m/s 742 mmHg 77%
    05:00 +8°C° 0.1 mm 3 m/s 743 mmHg 79%
    06:00 +8°C° 0.1 mm 3 m/s 743 mmHg 81%
    07:00 +8°C° 0 mm 4 m/s 744 mmHg 72%
    08:00 +11°C° 0 mm 4 m/s 745 mmHg 63%
    09:00 +13°C° 0 mm 4 m/s 746 mmHg 54%
    10:00 +13°C° 0 mm 4 m/s 746 mmHg 53%
    11:00 +14°C° 0 mm 4 m/s 746 mmHg 52%
    12:00 +14°C° 0 mm 4 m/s 747 mmHg 52%
    13:00 +13°C° 0 mm 4 m/s 747 mmHg 56%
    14:00 +13°C° 0 mm 3 m/s 747 mmHg 60%
    15:00 +12°C° 0 mm 3 m/s 747 mmHg 64%
    16:00 +11°C° 0 mm 3 m/s 747 mmHg 66%
    17:00 +11°C° 0 mm 3 m/s 747 mmHg 68%
    18:00 +11°C° 0 mm 3 m/s 747 mmHg 70%
    19:00 +10°C° 0 mm 2 m/s 748 mmHg 72%
    20:00 +10°C° 0 mm 2 m/s 749 mmHg 75%
    21:00 +10°C° 0 mm 1 m/s 749 mmHg 78%
    22:00 +9°C° 0 mm 1 m/s 749 mmHg 82%
    23:00 +8°C° 0 mm 1 m/s 749 mmHg 85%

    Poimâine, 27 Aprilie, Sâmbătă

    Timp Temperatura Precipitaţii Vânt Presiune Umiditate
    00:00 +8°C° 0 mm 1 m/s 749 mmHg 89%
    01:00 +7°C° 0 mm 1 m/s 749 mmHg 89%
    02:00 +7°C° 0 mm 1 m/s 749 mmHg 89%
    03:00 +6°C° 0 mm 2 m/s 749 mmHg 89%
    04:00 +8°C° 0 mm 1 m/s 749 mmHg 86%
    05:00 +8°C° 0 mm 1 m/s 749 mmHg 84%
    06:00 +9°C° 0 mm 1 m/s 749 mmHg 81%
    07:00 +10°C° 0 mm 1 m/s 749 mmHg 75%
    08:00 +12°C° 0 mm 1 m/s 749 mmHg 70%
    09:00 +14°C° 0 mm 1 m/s 750 mmHg 64%
    10:00 +14°C° 0 mm 2 m/s 750 mmHg 65%
    11:00 +13°C° 0 mm 3 m/s 750 mmHg 66%
    12:00 +14°C° 0 mm 3 m/s 750 mmHg 67%
    13:00 +14°C° 0.1 mm 3 m/s 750 mmHg 69%
    14:00 +13°C° 0.1 mm 3 m/s 750 mmHg 72%
    15:00 +13°C° 0.1 mm 3 m/s 749 mmHg 75%
    16:00 +12°C° 0 mm 3 m/s 750 mmHg 75%
    17:00 +13°C° 0 mm 2 m/s 750 mmHg 76%
    18:00 +12°C° 0 mm 2 m/s 750 mmHg 77%
    19:00 +10°C° 0 mm 2 m/s 750 mmHg 81%
    20:00 +10°C° 0 mm 1 m/s 751 mmHg 85%
    21:00 +9°C° 0 mm 1 m/s 751 mmHg 89%
    22:00 +7°C° 0 mm 0 m/s 751 mmHg 91%
    23:00 +7°C° 0 mm 0 m/s 751 mmHg 92%

    28 Aprilie, Duminică

    Timp Temperatura Precipitaţii Vânt Presiune Umiditate
    00:00 +6°C° 0 mm 0 m/s 751 mmHg 94%
    01:00 +6°C° 0 mm 0 m/s 750 mmHg 94%
    02:00 +6°C° 0 mm 0 m/s 750 mmHg 95%
    03:00 +6°C° 0 mm 0 m/s 750 mmHg 95%
    04:00 +6°C° 0 mm 0 m/s 749 mmHg 95%
    05:00 +6°C° 0 mm 0 m/s 749 mmHg 94%
    06:00 +6°C° 0 mm 0 m/s 749 mmHg 93%
    07:00 +9°C° 0 mm 1 m/s 749 mmHg 82%
    08:00 +11°C° 0 mm 1 m/s 749 mmHg 70%
    09:00 +13°C° 0 mm 1 m/s 748 mmHg 58%
    10:00 +15°C° 0 mm 2 m/s 748 mmHg 54%
    11:00 +16°C° 0 mm 2 m/s 747 mmHg 51%
    12:00 +17°C° 0 mm 3 m/s 747 mmHg 47%
    13:00 +17°C° 0 mm 3 m/s 746 mmHg 48%
    14:00 +16°C° 0 mm 3 m/s 746 mmHg 50%
    15:00 +16°C° 0 mm 3 m/s 745 mmHg 51%
    16:00 +14°C° 0 mm 3 m/s 745 mmHg 56%
    17:00 +14°C° 0 mm 2 m/s 745 mmHg 61%
    18:00 +13°C° 0 mm 2 m/s 745 mmHg 66%
    19:00 +10°C° 0 mm 2 m/s 745 mmHg 74%
    20:00 +9°C° 0 mm 1 m/s 745 mmHg 82%
    21:00 +7°C° 0 mm 1 m/s 745 mmHg 91%
    22:00 +7°C° 0 mm 1 m/s 745 mmHg 91%
    23:00 +7°C° 0 mm 1 m/s 745 mmHg 91%

    29 Aprilie, Luni

    Timp Temperatura Precipitaţii Vânt Presiune Umiditate
    00:00 +7°C° 0 mm 1 m/s 744 mmHg 91%
    01:00 +6°C° 0 mm 1 m/s 744 mmHg 90%
    02:00 +6°C° 0 mm 1 m/s 744 mmHg 89%
    03:00 +6°C° 0 mm 1 m/s 743 mmHg 88%
    04:00 +7°C° 0 mm 1 m/s 743 mmHg 87%
    05:00 +7°C° 0 mm 1 m/s 743 mmHg 85%
    06:00 +7°C° 0 mm 1 m/s 743 mmHg 83%
    07:00 +10°C° 0 mm 1 m/s 743 mmHg 72%
    08:00 +13°C° 0 mm 1 m/s 743 mmHg 62%
    09:00 +16°C° 0 mm 1 m/s 743 mmHg 51%
    10:00 +19°C° 0 mm 1 m/s 742 mmHg 48%
    11:00 +19°C° 0 mm 2 m/s 742 mmHg 44%
    12:00 +20°C° 0 mm 2 m/s 741 mmHg 41%
    13:00 +20°C° 0 mm 2 m/s 741 mmHg 43%
    14:00 +20°C° 0 mm 2 m/s 740 mmHg 44%
    15:00 +20°C° 0 mm 2 m/s 740 mmHg 46%
    16:00 +19°C° 0 mm 2 m/s 740 mmHg 53%
    17:00 +17°C° 0 mm 2 m/s 739 mmHg 60%
    18:00 +16°C° 0 mm 2 m/s 739 mmHg 66%
    19:00 +14°C° 0 mm 1 m/s 739 mmHg 75%
    20:00 +12°C° 0 mm 1 m/s 740 mmHg 83%
    21:00 +10°C° 0 mm 1 m/s 740 mmHg 91%
    22:00 +10°C° 0 mm 1 m/s 740 mmHg 90%
    23:00 +10°C° 0 mm 1 m/s 739 mmHg 89%

    30 Aprilie, Marţi

    Timp Temperatura Precipitaţii Vânt Presiune Umiditate
    00:00 +10°C° 0 mm 1 m/s 739 mmHg 88%
    01:00 +10°C° 0 mm 1 m/s 739 mmHg 86%
    02:00 +10°C° 0 mm 1 m/s 738 mmHg 85%
    03:00 +9°C° 0 mm 2 m/s 738 mmHg 83%
    04:00 +10°C° 0 mm 2 m/s 738 mmHg 81%
    05:00 +10°C° 0 mm 2 m/s 738 mmHg 80%
    06:00 +10°C° 0 mm 2 m/s 738 mmHg 78%
    07:00 +14°C° 0 mm 2 m/s 738 mmHg 69%
    08:00 +18°C° 0 mm 2 m/s 738 mmHg 59%
    09:00 +22°C° 0 mm 1 m/s 738 mmHg 49%
    10:00 +24°C° 0 mm 1 m/s 738 mmHg 45%
    11:00 +26°C° 0 mm 1 m/s 737 mmHg 41%
    12:00 +28°C° 0 mm 1 m/s 737 mmHg 37%
    13:00 +27°C° 0 mm 2 m/s 737 mmHg 39%
    14:00 +26°C° 0 mm 2 m/s 737 mmHg 42%
    15:00 +25°C° 0 mm 2 m/s 736 mmHg 45%
    16:00 +23°C° 0 mm 2 m/s 736 mmHg 53%
    17:00 +20°C° 0 mm 3 m/s 736 mmHg 61%
    18:00 +18°C° 0 mm 3 m/s 736 mmHg 69%
    19:00 +16°C° 0 mm 2 m/s 736 mmHg 77%
    20:00 +14°C° 0 mm 2 m/s 737 mmHg 85%
    21:00 +12°C° 0 mm 1 m/s 737 mmHg 92%
    22:00 +12°C° 0 mm 1 m/s 737 mmHg 93%
    23:00 +12°C° 0 mm 1 m/s 737 mmHg 94%
    Arată mai mult